Simultaneous Nadir Overpasses (SNOs) Predictions

Prediction of SNOs between METOP-B and NOAA-19 Satellite Orbit:

Table of predicted SNOs for the next 14.0 days since TLE Epoch: 5/16/2014
Index Date (METOP-B) Time (METOP-B) Lat,Lon (METOP-B) SZA (METOP-B ) Date (NOAA-19) Time (NOAA-19) Lat,Lon (NOAA-19) SZA (NOAA-19 ) Distance(km) Time Diff (sec)
1 05/24/2014 08:32:10 -74.28,-132.44 126.55 05/24/2014 08:30:59 -74.30,-133.98 126.49 46.49 71
2 05/24/2014 09:22:56 73.99, 34.16 53.17 05/24/2014 09:22:00 73.97, 34.09 53.16 2.98 56
3 05/24/2014 10:13:38 -73.97,-158.56 126.86 05/24/2014 10:12:56 -73.98,-158.67 126.84 3.44 42
4 05/24/2014 11:04:19 73.92, 8.65 53.09 05/24/2014 11:04:03 73.94, 8.66 53.11 2.06 16
5 05/24/2014 11:55:01 -73.90, 175.93 126.94 05/24/2014 11:54:58 -73.90, 176.02 126.94 2.74 3
6
